Time,TemperatureF,DewpointF,PressureIn,WindDirection,WindDirectionDegrees,WindSpeedMPH,WindSpeedGustMPH,Humidity,HourlyPrecipIn,Conditions,Clouds,dailyrainin,SoftwareType,DateUTC
2013-05-10 00:03:00,61.0,57.0,29.98,North,0,0.0,-999.0,87,-99.99,,,-99.99,,2013-05-10 04:03:00,
2013-05-10 00:12:00,63.0,57.0,29.98,North,0,0.0,-999.0,82,-99.99,,,-99.99,,2013-05-10 04:12:00,
2013-05-10 00:23:00,63.0,57.0,29.98,North,0,0.0,-999.0,82,-99.99,,,-99.99,,2013-05-10 04:23:00,
2013-05-10 00:33:00,63.0,57.0,29.99,North,0,0.0,-999.0,82,-99.99,,,-99.99,,2013-05-10 04:33:00,
2013-05-10 00:43:00,63.0,57.0,29.99,North,0,0.0,-999.0,82,-99.99,,,-99.99,,2013-05-10 04:43:00,
2013-05-10 00:52:00,63.0,57.0,29.99,North,0,0.0,-999.0,82,-99.99,,,-99.99,,2013-05-10 04:52:00,
2013-05-10 01:02:00,63.0,57.0,29.99,North,0,0.0,-999.0,82,-99.99,,,-99.99,,2013-05-10 05:02:00,
2013-05-10 01:12:00,61.0,55.0,29.99,North,0,0.0,-999.0,82,-99.99,,,-99.99,,2013-05-10 05:12:00,
2013-05-10 01:22:00,61.0,55.0,29.99,North,0,0.0,-999.0,82,-99.99,,,-99.99,,2013-05-10 05:22:00,
2013-05-10 01:32:00,61.0,55.0,29.98,North,0,0.0,-999.0,82,-99.99,,,-99.99,,2013-05-10 05:32:00,
2013-05-10 01:42:00,61.0,55.0,29.98,North,0,0.0,-999.0,82,-99.99,,,-99.99,,2013-05-10 05:42:00,
2013-05-10 01:52:00,61.0,55.0,29.98,North,0,0.0,-999.0,82,-99.99,,,-99.99,,2013-05-10 05:52:00,
2013-05-10 02:02:00,61.0,55.0,29.98,North,0,0.0,-999.0,82,-99.99,,,-99.99,,2013-05-10 06:02:00,
2013-05-10 02:12:00,61.0,55.0,29.99,North,0,0.0,-999.0,82,-99.99,,,-99.99,,2013-05-10 06:12:00,
2013-05-10 02:22:00,61.0,55.0,29.99,North,0,0.0,-999.0,82,-99.99,,,-99.99,,2013-05-10 06:22:00,
2013-05-10 02:32:00,61.0,57.0,29.98,North,0,0.0,-999.0,87,-99.99,,,-99.99,,2013-05-10 06:32:00,
2013-05-10 02:42:00,61.0,57.0,29.98,North,0,0.0,-999.0,87,-99.99,,,-99.99,,2013-05-10 06:42:00,
2013-05-10 02:51:00,59.0,55.0,29.99,North,0,0.0,-999.0,87,-99.99,,,-99.99,,2013-05-10 06:51:00,
2013-05-10 03:02:00,59.0,55.0,29.99,North,0,0.0,-999.0,87,-99.99,,,-99.99,,2013-05-10 07:02:00,
2013-05-10 03:12:00,59.0,55.0,29.99,North,0,0.0,-999.0,87,-99.99,,,-99.99,,2013-05-10 07:12:00,
2013-05-10 03:22:00,59.0,55.0,29.99,North,0,0.0,-999.0,87,-99.99,,,-99.99,,2013-05-10 07:22:00,
2013-05-10 03:32:00,57.0,55.0,29.99,North,0,0.0,-999.0,93,-99.99,,,-99.99,,2013-05-10 07:32:00,
2013-05-10 03:42:00,57.0,55.0,29.99,North,0,0.0,-999.0,93,-99.99,,,-99.99,,2013-05-10 07:42:00,
2013-05-10 03:52:00,57.0,55.0,29.99,North,0,0.0,-999.0,93,-99.99,,,-99.99,,2013-05-10 07:52:00,
2013-05-10 04:02:00,57.0,55.0,29.99,North,0,0.0,-999.0,93,-99.99,,,-99.99,,2013-05-10 08:02:00,
2013-05-10 04:12:00,57.0,54.0,29.98,North,0,0.0,-999.0,87,-99.99,,,-99.99,,2013-05-10 08:12:00,
2013-05-10 04:22:00,57.0,54.0,29.98,North,0,0.0,-999.0,87,-99.99,,,-99.99,,2013-05-10 08:22:00,
2013-05-10 04:32:00,57.0,54.0,29.98,North,0,0.0,-999.0,87,-99.99,,,-99.99,,2013-05-10 08:32:00,
2013-05-10 04:42:00,57.0,54.0,29.98,North,0,0.0,-999.0,87,-99.99,,,-99.99,,2013-05-10 08:42:00,
2013-05-10 04:52:00,57.0,54.0,29.98,North,0,0.0,-999.0,87,-99.99,,,-99.99,,2013-05-10 08:52:00,
2013-05-10 05:02:00,57.0,54.0,29.98,North,0,0.0,-999.0,87,-99.99,,,-99.99,,2013-05-10 09:02:00,
2013-05-10 05:11:00,55.0,54.0,29.98,North,0,0.0,-999.0,93,-99.99,,,-99.99,,2013-05-10 09:11:00,
2013-05-10 05:21:00,55.0,54.0,29.98,North,0,0.0,-999.0,93,-99.99,,,-99.99,,2013-05-10 09:21:00,
2013-05-10 05:33:00,55.0,54.0,29.98,North,0,0.0,-999.0,93,-99.99,,,-99.99,,2013-05-10 09:33:00,
2013-05-10 05:43:00,55.0,54.0,29.98,North,0,0.0,-999.0,93,-99.99,,,-99.99,,2013-05-10 09:43:00,
2013-05-10 05:52:00,55.0,54.0,29.99,North,0,0.0,-999.0,93,-99.99,,,-99.99,,2013-05-10 09:52:00,
2013-05-10 06:03:00,55.0,54.0,29.99,North,0,0.0,-999.0,93,-99.99,,,-99.99,,2013-05-10 10:03:00,
2013-05-10 06:12:00,55.0,52.0,29.98,North,0,0.0,-999.0,87,-99.99,,,-99.99,,2013-05-10 10:12:00,
2013-05-10 06:23:00,55.0,52.0,29.98,North,0,0.0,-999.0,87,-99.99,,,-99.99,,2013-05-10 10:23:00,
2013-05-10 06:32:00,55.0,54.0,29.98,North,0,0.0,-999.0,93,-99.99,,,-99.99,,2013-05-10 10:32:00,
2013-05-10 06:42:00,55.0,54.0,29.98,North,0,0.0,-999.0,93,-99.99,,,-99.99,,2013-05-10 10:42:00,
2013-05-10 06:52:00,55.0,54.0,29.99,North,0,0.0,-999.0,93,-99.99,,,-99.99,,2013-05-10 10:52:00,
2013-05-10 07:02:00,55.0,54.0,29.99,North,0,0.0,-999.0,93,-99.99,,,-99.99,,2013-05-10 11:02:00,
2013-05-10 07:12:00,55.0,54.0,29.99,North,0,0.0,-999.0,93,-99.99,,,-99.99,,2013-05-10 11:12:00,
2013-05-10 07:22:00,55.0,54.0,29.99,North,0,0.0,-999.0,93,-99.99,,,-99.99,,2013-05-10 11:22:00,
2013-05-10 07:32:00,57.0,55.0,30.00,North,0,0.0,-999.0,93,-99.99,,,-99.99,,2013-05-10 11:32:00,
2013-05-10 07:42:00,57.0,55.0,30.00,North,0,0.0,-999.0,93,-99.99,,,-99.99,,2013-05-10 11:42:00,
2013-05-10 07:52:00,59.0,57.0,30.00,North,0,0.0,-999.0,93,-99.99,,,-99.99,,2013-05-10 11:52:00,
2013-05-10 08:02:00,59.0,57.0,30.00,North,0,0.0,-999.0,93,-99.99,,,-99.99,,2013-05-10 12:02:00,
2013-05-10 08:12:00,61.0,59.0,30.00,North,0,0.0,-999.0,93,-99.99,,,-99.99,,2013-05-10 12:12:00,
2013-05-10 08:22:00,61.0,59.0,30.00,North,0,0.0,-999.0,93,-99.99,,,-99.99,,2013-05-10 12:22:00,
2013-05-10 08:32:00,64.0,63.0,30.00,North,0,0.0,-999.0,93,-99.99,,,-99.99,,2013-05-10 12:32:00,
2013-05-10 08:42:00,64.0,63.0,30.00,North,0,0.0,-999.0,93,-99.99,,,-99.99,,2013-05-10 12:42:00,
2013-05-10 08:51:00,66.0,63.0,30.00,North,0,0.0,-999.0,88,-99.99,,,-99.99,,2013-05-10 12:51:00,
2013-05-10 09:01:00,66.0,63.0,30.00,North,0,0.0,-999.0,88,-99.99,,,-99.99,,2013-05-10 13:01:00,
2013-05-10 09:11:00,68.0,61.0,30.01,North,0,0.0,-999.0,77,-99.99,,,-99.99,,2013-05-10 13:11:00,
2013-05-10 09:21:00,68.0,61.0,30.01,North,0,0.0,-999.0,77,-99.99,,,-99.99,,2013-05-10 13:21:00,
2013-05-10 09:32:00,70.0,61.0,30.01,North,0,0.0,-999.0,73,-99.99,,,-99.99,,2013-05-10 13:32:00,
2013-05-10 09:42:00,70.0,61.0,30.01,North,0,0.0,-999.0,73,-99.99,,,-99.99,,2013-05-10 13:42:00,
2013-05-10 09:52:00,72.0,63.0,30.00,North,0,0.0,-999.0,73,-99.99,,,-99.99,,2013-05-10 13:52:00,
2013-05-10 10:02:00,72.0,63.0,30.00,North,0,0.0,-999.0,73,-99.99,,,-99.99,,2013-05-10 14:02:00,
2013-05-10 10:11:00,72.0,61.0,30.00,North,0,0.0,-999.0,68,-99.99,,,-99.99,,2013-05-10 14:11:00,
2013-05-10 10:21:00,72.0,61.0,30.00,North,0,0.0,-999.0,68,-99.99,,,-99.99,,2013-05-10 14:21:00,
2013-05-10 10:32:00,73.0,57.0,30.01,North,0,0.0,-999.0,56,-99.99,,,-99.99,,2013-05-10 14:32:00,
2013-05-10 10:42:00,73.0,57.0,30.01,North,0,0.0,-999.0,56,-99.99,,,-99.99,,2013-05-10 14:42:00,
2013-05-10 10:51:00,75.0,61.0,30.01,North,0,0.0,-999.0,60,-99.99,,,-99.99,,2013-05-10 14:51:00,
2013-05-10 11:02:00,75.0,61.0,30.01,North,0,0.0,-999.0,60,-99.99,,,-99.99,,2013-05-10 15:02:00,
2013-05-10 11:20:00,-999.0,-99.9,30.01,North,0,0.0,-999.0,60,-99.99,,,-99.99,,2013-05-10 15:20:00,
2013-05-10 11:32:00,75.0,63.0,30.00,North,0,0.0,-999.0,64,-99.99,,,-99.99,,2013-05-10 15:32:00,
2013-05-10 11:42:00,75.0,63.0,30.00,North,0,0.0,-999.0,64,-99.99,,,-99.99,,2013-05-10 15:42:00,
2013-05-10 11:53:00,75.0,61.0,30.00,SE,130,7.0,-999.0,60,-99.99,,,-99.99,,2013-05-10 15:53:00,
2013-05-10 12:02:00,75.0,61.0,30.00,SE,130,7.0,-999.0,60,-99.99,,,-99.99,,2013-05-10 16:02:00,
2013-05-10 12:12:00,75.0,61.0,29.99,ESE,110,6.0,-999.0,60,-99.99,,,-99.99,,2013-05-10 16:12:00,
2013-05-10 12:23:00,75.0,61.0,29.99,ESE,110,6.0,-999.0,60,-99.99,,,-99.99,,2013-05-10 16:23:00,
2013-05-10 12:33:00,75.0,59.0,29.99,ESE,110,7.0,-999.0,57,-99.99,,,-99.99,,2013-05-10 16:33:00,
2013-05-10 12:43:00,75.0,59.0,29.99,ESE,110,7.0,-999.0,57,-99.99,,,-99.99,,2013-05-10 16:43:00,
2013-05-10 12:52:00,77.0,57.0,29.98,SE,140,8.0,-999.0,50,-99.99,,,-99.99,,2013-05-10 16:52:00,
2013-05-10 13:02:00,77.0,57.0,29.98,SE,140,8.0,-999.0,50,-99.99,,,-99.99,,2013-05-10 17:02:00,
2013-05-10 13:12:00,79.0,57.0,29.98,South,170,9.0,-999.0,47,-99.99,,,-99.99,,2013-05-10 17:12:00,
2013-05-10 13:22:00,79.0,57.0,29.98,South,170,9.0,-999.0,47,-99.99,,,-99.99,,2013-05-10 17:22:00,
2013-05-10 13:32:00,77.0,57.0,29.97,SSE,150,8.0,-999.0,50,-99.99,,,-99.99,,2013-05-10 17:32:00,
2013-05-10 13:42:00,77.0,57.0,29.97,SSE,150,8.0,-999.0,50,-99.99,,,-99.99,,2013-05-10 17:42:00,
2013-05-10 13:52:00,79.0,57.0,29.97,SSE,160,10.0,15.0,47,-99.99,,,-99.99,,2013-05-10 17:52:00,
2013-05-10 14:10:00,-999.0,-99.9,29.97,SSE,160,10.0,15.0,47,-99.99,,,-99.99,,2013-05-10 18:10:00,
2013-05-10 14:22:00,79.0,55.0,29.96,South,170,7.0,-999.0,44,-99.99,,,-99.99,,2013-05-10 18:22:00,
2013-05-10 14:34:00,79.0,55.0,29.96,SSE,150,8.0,-999.0,44,-99.99,,,-99.99,,2013-05-10 18:34:00,
2013-05-10 14:43:00,79.0,55.0,29.96,SSE,150,8.0,-999.0,44,-99.99,,,-99.99,,2013-05-10 18:43:00,
2013-05-10 14:54:00,79.0,55.0,29.95,SSE,150,5.0,-999.0,44,-99.99,,,-99.99,,2013-05-10 18:54:00,
2013-05-10 15:02:00,79.0,55.0,29.95,SSE,150,5.0,-999.0,44,-99.99,,,-99.99,,2013-05-10 19:02:00,
2013-05-10 15:11:00,79.0,55.0,29.95,SSE,150,5.0,-999.0,44,-99.99,,,-99.99,,2013-05-10 19:11:00,
2013-05-10 15:21:00,79.0,55.0,29.95,SSE,150,5.0,-999.0,44,-99.99,,,-99.99,,2013-05-10 19:21:00,
2013-05-10 15:32:00,79.0,57.0,29.94,South,180,6.0,-999.0,47,-99.99,,,-99.99,,2013-05-10 19:32:00,
2013-05-10 15:42:00,79.0,57.0,29.94,South,180,6.0,-999.0,47,-99.99,,,-99.99,,2013-05-10 19:42:00,
2013-05-10 15:52:00,79.0,59.0,29.93,SSW,200,6.0,-999.0,50,-99.99,,,-99.99,,2013-05-10 19:52:00,
2013-05-10 16:02:00,79.0,59.0,29.93,SSW,200,6.0,-999.0,50,-99.99,,,-99.99,,2013-05-10 20:02:00,
2013-05-10 16:12:00,81.0,61.0,29.92,SE,140,5.0,-999.0,50,-99.99,,,-99.99,,2013-05-10 20:12:00,
2013-05-10 16:22:00,81.0,61.0,29.92,SE,140,5.0,-999.0,50,-99.99,,,-99.99,,2013-05-10 20:22:00,
2013-05-10 16:32:00,81.0,61.0,29.91,SE,140,6.0,-999.0,50,-99.99,,,-99.99,,2013-05-10 20:32:00,
2013-05-10 16:42:00,81.0,61.0,29.91,SE,140,6.0,-999.0,50,-99.99,,,-99.99,,2013-05-10 20:42:00,
2013-05-10 16:52:00,79.0,57.0,29.91,SSE,150,5.0,-999.0,47,-99.99,,,-99.99,,2013-05-10 20:52:00,
2013-05-10 17:02:00,79.0,57.0,29.91,SSE,150,5.0,-999.0,47,-99.99,,,-99.99,,2013-05-10 21:02:00,
2013-05-10 17:11:00,79.0,59.0,29.92,South,170,6.0,-999.0,50,-99.99,,,-99.99,,2013-05-10 21:11:00,
2013-05-10 17:25:00,79.0,59.0,29.92,South,170,6.0,-999.0,50,-99.99,,,-99.99,,2013-05-10 21:25:00,
2013-05-10 17:32:00,77.0,57.0,29.91,North,0,0.0,-999.0,50,-99.99,,,-99.99,,2013-05-10 21:32:00,
2013-05-10 17:43:00,77.0,57.0,29.91,North,0,0.0,-999.0,50,-99.99,,,-99.99,,2013-05-10 21:43:00,
2013-05-10 17:52:00,77.0,57.0,29.91,South,190,10.0,20.0,50,-99.99,,,-99.99,,2013-05-10 21:52:00,
2013-05-10 18:02:00,77.0,57.0,29.91,South,190,10.0,20.0,50,-99.99,,,-99.99,,2013-05-10 22:02:00,
2013-05-10 18:13:00,77.0,55.0,29.91,South,170,10.0,22.0,47,-99.99,,,-99.99,,2013-05-10 22:13:00,
2013-05-10 18:22:00,77.0,55.0,29.91,South,170,10.0,22.0,47,-99.99,,,-99.99,,2013-05-10 22:22:00,
2013-05-10 18:32:00,75.0,55.0,29.90,South,180,13.0,17.0,50,-99.99,,,-99.99,,2013-05-10 22:32:00,
2013-05-10 18:42:00,75.0,55.0,29.90,South,180,13.0,17.0,50,-99.99,,,-99.99,,2013-05-10 22:42:00,
2013-05-10 18:52:00,77.0,55.0,29.89,South,180,5.0,-999.0,47,-99.99,,,-99.99,,2013-05-10 22:52:00,
2013-05-10 19:02:00,77.0,55.0,29.89,South,180,5.0,-999.0,47,-99.99,,,-99.99,,2013-05-10 23:02:00,
2013-05-10 19:12:00,75.0,55.0,29.88,South,180,7.0,-999.0,50,-99.99,,,-99.99,,2013-05-10 23:12:00,
2013-05-10 19:22:00,75.0,55.0,29.88,South,180,7.0,-999.0,50,-99.99,,,-99.99,,2013-05-10 23:22:00,
2013-05-10 19:33:00,75.0,57.0,29.88,South,170,6.0,-999.0,53,-99.99,,,-99.99,,2013-05-10 23:33:00,
2013-05-10 19:42:00,75.0,57.0,29.88,South,170,6.0,-999.0,53,-99.99,,,-99.99,,2013-05-10 23:42:00,
2013-05-10 19:52:00,75.0,57.0,29.88,South,180,7.0,-999.0,53,-99.99,,,-99.99,,2013-05-10 23:52:00,
2013-05-10 20:02:00,75.0,57.0,29.88,South,180,7.0,-999.0,53,-99.99,,,-99.99,,2013-05-11 00:02:00,
2013-05-10 20:11:00,73.0,57.0,29.88,South,180,5.0,-999.0,56,-99.99,,,-99.99,,2013-05-11 00:11:00,
2013-05-10 20:22:00,73.0,57.0,29.88,South,180,5.0,-999.0,56,-99.99,,,-99.99,,2013-05-11 00:22:00,
2013-05-10 20:32:00,72.0,59.0,29.88,North,0,0.0,-999.0,64,-99.99,,,-99.99,,2013-05-11 00:32:00,
2013-05-10 20:42:00,72.0,59.0,29.88,North,0,0.0,-999.0,64,-99.99,,,-99.99,,2013-05-11 00:42:00,
2013-05-10 20:52:00,72.0,59.0,29.88,South,180,5.0,-999.0,64,-99.99,,,-99.99,,2013-05-11 00:52:00,
2013-05-10 21:01:00,72.0,59.0,29.88,South,180,5.0,-999.0,64,-99.99,,,-99.99,,2013-05-11 01:01:00,
2013-05-10 21:11:00,72.0,59.0,29.89,North,0,0.0,-999.0,64,-99.99,,,-99.99,,2013-05-11 01:11:00,
2013-05-10 21:21:00,72.0,59.0,29.89,North,0,0.0,-999.0,64,-99.99,,,-99.99,,2013-05-11 01:21:00,
2013-05-10 21:32:00,72.0,61.0,29.89,North,0,0.0,-999.0,68,-99.99,,,-99.99,,2013-05-11 01:32:00,
2013-05-10 21:42:00,72.0,61.0,29.89,North,0,0.0,-999.0,68,-99.99,,,-99.99,,2013-05-11 01:42:00,
2013-05-10 21:52:00,70.0,59.0,29.89,North,0,0.0,-999.0,68,-99.99,,,-99.99,,2013-05-11 01:52:00,
2013-05-10 22:02:00,70.0,59.0,29.89,North,0,0.0,-999.0,68,-99.99,,,-99.99,,2013-05-11 02:02:00,
2013-05-10 22:11:00,70.0,61.0,29.88,North,0,0.0,-999.0,73,-99.99,,,-99.99,,2013-05-11 02:11:00,
2013-05-10 22:22:00,70.0,61.0,29.88,North,0,0.0,-999.0,73,-99.99,,,-99.99,,2013-05-11 02:22:00,
2013-05-10 22:32:00,72.0,59.0,29.91,North,0,0.0,-999.0,64,-99.99,,,-99.99,,2013-05-11 02:32:00,
2013-05-10 22:42:00,72.0,59.0,29.91,North,0,0.0,-999.0,64,-99.99,,,-99.99,,2013-05-11 02:42:00,
2013-05-10 22:52:00,72.0,61.0,29.92,North,350,9.0,-999.0,68,-99.99,,,-99.99,,2013-05-11 02:52:00,
2013-05-10 23:01:00,72.0,61.0,29.92,North,350,9.0,-999.0,68,-99.99,,,-99.99,,2013-05-11 03:01:00,
2013-05-10 23:11:00,70.0,59.0,29.91,North,0,0.0,-999.0,68,-99.99,,,-99.99,,2013-05-11 03:11:00,
2013-05-10 23:21:00,70.0,59.0,29.91,North,0,0.0,-999.0,68,-99.99,,,-99.99,,2013-05-11 03:21:00,
2013-05-10 23:33:00,68.0,59.0,29.90,North,-999,-999.0,-999.0,72,-99.99,,,-99.99,,2013-05-11 03:33:00,
2013-05-10 23:42:00,68.0,59.0,29.90,North,-999,-999.0,-999.0,72,-99.99,,,-99.99,,2013-05-11 03:42:00,
2013-05-10 23:53:00,66.0,61.0,29.95,WNW,300,8.0,-999.0,82,-99.99,,,-99.99,,2013-05-11 03:53:00,